Kleine Brogel, Belgium

4:45 AM CEST on June 19, 2018 (GMT +0200)
Kleine-Brogel Air Base

Weather History for EBBL - June, 2018

Change the Weather History Date:

Thursday, June 14, 2018

  Actual Average Record
Temperature  
Mean Temperature 58 °F -  
Max Temperature 70 °F 67 °F 78 °F (2017)
Min Temperature 46 °F 54 °F 41 °F (2004)
Degree Days  
Heating Degree Days 7    
Growing Degree Days 8 (Base 50)    
Moisture  
Dew Point 51 °F    
Average Humidity 76    
Maximum Humidity 100    
Minimum Humidity 34    
Precipitation  
Precipitation 0.00 in - - ()
Sea Level Pressure  
Sea Level Pressure 30.00 in    
Wind  
Wind Speed 5 mph ()    
Max Wind Speed 16 mph    
Max Gust Speed -    
Visibility 7.6 miles    
Events Rain    
Averages and records for this station are not official NWS values.
T = Trace of Precipitation, MM = Missing Value Source: Averaged Metar Reports

Daily Weather History Graph

Daily Weather History Graph

Search for Another Location

Airport or City:

Astronomy

Jun. 14, 2018 Rise Set
Actual Time 5:22 AM CEST 9:54 PM CEST
Civil Twilight 4:35 AM CEST 10:41 PM CEST
Nautical Twilight 3:24 AM CEST 11:52 PM CEST
Astronomical Twilight 2:10 AM CEST 1:06 AM CEST
Moon 6:12 AM CEST (6/14) 10:31 PM CEST (6/14)
Length of Visible Light 18h 05m
Length of Day
16h 32m
New Moon, 1% of the Moon is Illuminated
Jun 14
New Moon
Jun 20
First Quarter
Jun 28
Full
Jul 6
Last Quarter
Jul 13
New

Hourly Weather History & Observations

Time (CEST) Temp. Dew Point Humidity Pressure Visibility Wind Dir Wind Speed Gust Speed Precip Events Conditions
12:00 AM 50 °F 46 °F 83% 30.07 in 12 mi 2.2 mph - -  
12:25 AM 50.0 °F 46.4 °F 87% 30.04 in 6.2 mi Variable 1.2 mph - N/A   Unknown
12:47 AM 50.0 °F 46.4 °F 87% 30.04 in 3.7 mi Variable 1.2 mph - N/A   Unknown
12:55 AM 50.0 °F 46.4 °F 87% 30.04 in 6.2 mi Variable 1.2 mph - N/A   Unknown
1:00 AM 50 °F 47 °F 85% 30.06 in 7 mi 2.2 mph - -  
1:23 AM 48.2 °F 46.4 °F 93% 30.04 in - Variable 1.2 mph - N/A   Unknown
1:25 AM 48.2 °F 46.4 °F 93% 30.04 in - Variable 1.2 mph - N/A   Unknown
1:43 AM 48.2 °F 46.4 °F 93% 30.04 in 6.2 mi Variable 1.2 mph - N/A   Unknown
1:55 AM 48.2 °F 46.4 °F 93% 30.04 in 3.7 mi Variable 1.2 mph - N/A   Unknown
2:00 AM 49 °F 46 °F 87% 30.06 in 4 mi 2.2 mph - -  
3:00 AM 49 °F 46 °F 86% 30.05 in 12 mi 2.2 mph - -  
4:00 AM 48 °F 46 °F 89% 30.04 in 12 mi 2.2 mph - -  
4:43 AM 48.2 °F 44.6 °F 87% 30.01 in 6.2 mi Variable 2.3 mph - N/A   Unknown
4:55 AM 48.2 °F 44.6 °F 87% 30.01 in 6.2 mi Variable 2.3 mph - N/A   Unknown
5:00 AM 48 °F 45 °F 85% 30.03 in 10 mi 2.2 mph - -  
5:25 AM 46.4 °F 44.6 °F 93% 30.01 in 6.2 mi Variable 2.3 mph - N/A   Scattered Clouds
5:53 AM 48.2 °F 46.4 °F 93% 30.01 in 6.2 mi Variable 2.3 mph - N/A   Scattered Clouds
5:55 AM 48.2 °F 46.4 °F 93% 30.01 in 6.2 mi Variable 2.3 mph - N/A   Scattered Clouds
6:00 AM 48 °F 46 °F 89% 30.02 in 9 mi 2.2 mph - -   Scattered Clouds
6:25 AM 51.8 °F 48.2 °F 88% 30.01 in 6.2 mi SSW 3.5 mph - N/A   Scattered Clouds
6:55 AM 51.8 °F 48.2 °F 88% 30.01 in 6.2 mi SSW 4.6 mph - N/A   Scattered Clouds
7:00 AM 52 °F 49 °F 85% 30.01 in 10 mi SSW 4.5 mph - -   Scattered Clouds
7:25 AM 53.6 °F 50.0 °F 88% 30.01 in 6.2 mi SSW 4.6 mph - N/A   Scattered Clouds
7:55 AM 55.4 °F 50.0 °F 82% 30.01 in 6.2 mi SSW 5.8 mph - N/A   Scattered Clouds
8:00 AM 56 °F 50 °F 75% 30.01 in 11 mi SSW 4.5 mph - -   Scattered Clouds
8:25 AM 59.0 °F 50.0 °F 72% 30.01 in 6.2 mi SSW 6.9 mph - N/A   Scattered Clouds
8:55 AM 60.8 °F 50.0 °F 68% 30.01 in 6.2 mi SSW 6.9 mph - N/A   Partly Cloudy
9:00 AM 61 °F 51 °F 60% 30.00 in 11 mi SSW 6.7 mph - -   Clear
9:25 AM 64.4 °F 50.0 °F 59% 29.98 in 6.2 mi SSW 10.4 mph - N/A   Partly Cloudy
9:55 AM 66.2 °F 50.0 °F 56% 29.98 in 6.2 mi SW 12.7 mph - N/A   Partly Cloudy
10:00 AM 65 °F 50 °F 49% 30.00 in 12 mi SW 11.2 mph - -   Scattered Clouds
10:25 AM 68.0 °F 50.0 °F 52% 29.98 in 6.2 mi SW 13.8 mph - N/A   Partly Cloudy
10:55 AM 68.0 °F 46.4 °F 46% 29.98 in 6.2 mi SW 15.0 mph - N/A   Partly Cloudy
11:00 AM 69 °F 47 °F 34% 29.98 in 12 mi SW 13.4 mph - -   Scattered Clouds
11:55 AM 69.8 °F 48.2 °F 46% 29.98 in 6.2 mi SW 15.0 mph - N/A   Mostly Cloudy
12:00 PM 70 °F 48 °F 34% 29.98 in 12 mi SW 15.7 mph - -   Scattered Clouds
12:25 PM 69.8 °F 46.4 °F 43% 29.98 in 6.2 mi SSW 11.5 mph - N/A   Mostly Cloudy
12:55 PM 69.8 °F 46.4 °F 43% 29.98 in 6.2 mi SSW 10.4 mph - N/A   Mostly Cloudy
1:00 PM 69 °F 47 °F 34% 29.98 in 12 mi SSW 8.9 mph - -   Scattered Clouds
1:25 PM 69.8 °F 48.2 °F 46% 29.98 in 6.2 mi SSW 13.8 mph - N/A   Mostly Cloudy
1:55 PM 69.8 °F 48.2 °F 46% 29.95 in 6.2 mi SW 13.8 mph - N/A   Mostly Cloudy
2:00 PM 69 °F 48 °F 36% 29.97 in 12 mi SW 13.4 mph - -   Scattered Clouds
2:25 PM 68.0 °F 50.0 °F 52% 29.95 in 6.2 mi SW 11.5 mph - N/A Rain Light Rain
2:55 PM 64.4 °F 53.6 °F 68% 29.95 in 6.2 mi SSW 9.2 mph - N/A Rain Light Rain
3:00 PM 64 °F 54 °F 61% 29.97 in 12 mi SSW 8.9 mph - - Rain Light Rain
3:25 PM 66.2 °F 53.6 °F 64% 29.95 in 6.2 mi SW 8.1 mph - N/A Rain Light Rain
3:55 PM 64.4 °F 55.4 °F 73% 29.98 in 6.2 mi SW 11.5 mph - N/A Rain Light Rain
4:00 PM 64 °F 56 °F 67% 29.98 in 10 mi SW 11.2 mph - - Rain Light Rain
4:25 PM 62.6 °F 55.4 °F 77% 29.95 in 6.2 mi SSW 8.1 mph - N/A Rain Light Rain
4:55 PM 62.6 °F 57.2 °F 82% 29.95 in 6.2 mi SSW 6.9 mph - N/A   Mostly Cloudy
5:00 PM 63 °F 56 °F 72% 29.96 in 9 mi SSW 6.7 mph - - Rain Light Rain
5:12 PM 62.6 °F 55.4 °F 77% 29.95 in 6.2 mi SSW 8.1 mph - N/A   Mostly Cloudy
5:25 PM 62.6 °F 55.4 °F 77% 29.95 in - SSW 10.4 mph - N/A   Overcast
5:55 PM 64.4 °F 55.4 °F 73% 29.95 in - SSW 9.2 mph - N/A   Mostly Cloudy
6:00 PM 64 °F 55 °F 65% 29.97 in - SSW 8.9 mph - -   Mostly Cloudy
6:25 PM 64.4 °F 55.4 °F 73% 29.98 in - SSW 9.2 mph - N/A   Overcast
6:55 PM 62.6 °F 57.2 °F 82% 29.98 in - SW 10.4 mph - N/A   Overcast
7:00 PM 63 °F 57 °F 74% 29.98 in - SW 8.9 mph - -   Scattered Clouds
7:19 PM 62.6 °F 55.4 °F 77% 29.98 in - SW 9.2 mph - N/A   Overcast
7:25 PM 62.6 °F 57.2 °F 82% 29.98 in - WSW 10.4 mph - N/A   Overcast
7:55 PM 60.8 °F 59.0 °F 94% 29.98 in - SW 5.8 mph - N/A   Overcast
8:00 PM 61 °F 58 °F 88% 29.99 in - SW 4.5 mph - -   Overcast
8:14 PM 60.8 °F 57.2 °F 88% 29.98 in - SW 5.8 mph - N/A   Overcast
8:25 PM 60.8 °F 57.2 °F 88% 29.98 in - SW 6.9 mph - N/A   Overcast
8:33 PM 60.8 °F 57.2 °F 88% 29.98 in - SW 8.1 mph - N/A   Overcast
8:55 PM 60.8 °F 57.2 °F 88% 29.98 in - SSW 5.8 mph - N/A   Mostly Cloudy
9:00 PM 61 °F 56 °F 80% 30.00 in - SSW 4.5 mph - -   Scattered Clouds
9:25 PM 60.8 °F 57.2 °F 88% 30.01 in - SW 4.6 mph - N/A   Overcast
9:55 PM 59.0 °F 59.0 °F 100% 30.01 in - SW 8.1 mph - N/A   Overcast
10:00 PM 59 °F 58 °F 96% 30.01 in - SW 6.7 mph - -   Overcast
10:25 PM 59.0 °F 59.0 °F 100% 30.01 in - SSW 5.8 mph - N/A   Overcast
10:55 PM 59.0 °F 59.0 °F 100% 30.01 in - SW 5.8 mph - N/A   Mostly Cloudy
11:00 PM 59 °F 58 °F 96% 30.02 in - SW 4.5 mph - -   Scattered Clouds
11:25 PM 59.0 °F 59.0 °F 100% 30.01 in - SSW 3.5 mph - N/A   Mostly Cloudy
11:55 PM 59.0 °F 57.2 °F 94% 30.01 in - SSW 4.6 mph - N/A   Mostly Cloudy